Tracking 23764 objects as of 18-Oct-2021
HD Live streaming from Space Station
objects crossing your sky now

COSMOS 418

Track COSMOS 418 now!
10-day predictions
COSMOS 418 is classified as:


NORAD ID: 5217
Int'l Code: 1971-041H
Perigee: 1,405.2 km
Apogee: 1,500.2 km
Inclination: 74.0 °
Period: 114.8 minutes
Semi major axis: 7823 km
RCS: 0.6974 m2 (medium)
Launch date: May 7, 1971
Source: Commonwealth of Independent States (former USSR) (CIS)
Launch site: PLESETSK MISSILE AND SPACE COMPLEX (PKMTR)
aabbcc
Your satellite tracking list
Your tracking list is empty




NASA's NSSDC Master Catalog

Two Line Element Set (TLE):
1 05217U 71041H   21290.86187786 -.00000035  00000-0 -11494-3 0  9995
2 05217  74.0160 216.7835 0060758 297.7290 119.0412 12.54542058310322
Source of the keplerian elements: AFSPC